This is the latest recevied weather packets stored in our database for station/object IN3APK-3. If no packets are shown the sender has not sent any weather packets the latest 10 day(s).
| Time | Temp. | Humidity | Pressure | Rain* | Wind** | Luminosity | Snow |
|---|---|---|---|---|---|---|---|
| 1777649807 | 29.44° C | 25% | 1017.1 hPa | - | - | - | - |
| 1777649156 | 30° C | 25% | 1017.1 hPa | - | - | - | - |
| 1777648504 | 30.56° C | 26% | 1017.1 hPa | - | - | - | - |
| 1777647200 | 30° C | 26% | 1017.1 hPa | - | - | - | - |
| 1777646550 | 30.56° C | 26% | 1017.2 hPa | - | - | - | - |
| 1777645898 | 30.56° C | 26% | 1017.2 hPa | - | - | - | - |
| 1777645245 | 29.44° C | 27% | 1017.2 hPa | - | - | - | - |
| 1777644592 | 28.33° C | 27% | 1017.4 hPa | - | - | - | - |
| 1777643940 | 27.78° C | 28% | 1017.4 hPa | - | - | - | - |
| 1777643288 | 26.67° C | 30% | 1017.6 hPa | - | - | - | - |
| 1777642636 | 25.56° C | 32% | 1017.7 hPa | - | - | - | - |
| 1777641983 | 25° C | 32% | 1018 hPa | - | - | - | - |
| 1777640677 | 25.56° C | 34% | 1018.1 hPa | - | - | - | - |
| 1777640025 | 26.11° C | 34% | 1018.1 hPa | - | - | - | - |
| 1777639372 | 25° C | 35% | 1018.3 hPa | - | - | - | - |
| 1777638720 | 24.44° C | 35% | 1018.4 hPa | - | - | - | - |
| 1777638067 | 23.89° C | 36% | 1018.5 hPa | - | - | - | - |
| 1777637414 | 21.67° C | 38% | 1018.5 hPa | - | - | - | - |
| 1777636761 | 21.11° C | 39% | 1018.7 hPa | - | - | - | - |
| 1777636109 | 20.56° C | 41% | 1018.8 hPa | - | - | - | - |
| 1777635456 | 19.44° C | 43% | 1018.9 hPa | - | - | - | - |
| 1777634152 | 19.44° C | 45% | 1019.1 hPa | - | - | - | - |
| 1777633499 | 19.44° C | 45% | 1019.2 hPa | - | - | - | - |
| 1777632846 | 18.33° C | 46% | 1019.4 hPa | - | - | - | - |
| 1777632193 | 17.78° C | 47% | 1019.6 hPa | - | - | - | - |
* Rain since midnight (hover to see other rain measurements)
** Current wind speed in m/s (hover to see current wind gust speed)